Date String (YYYY-MM-DD hh:mm:ss) UTC,Instrument flags,Ambient pressure (hPa),Sample flow (lpm),Bypass flow (lpm),Sample temperature (°C),Ambient temperature (°C),ASC tube jacket temperature (°C),LED temperature (°C),Box temperature (°C),Sample RH (%),Span deviation,Mass concentration (μg/m³),Mass concentration (μg/m³),Mass concentration (μg/m³)
DateTimeUTC,F1_M11,P_M11,Q1_M11,Q2_M11,T1_M11,T2_M11,T3_M11,T4_M11,T5_M11,U1_M11,ZSPAN_M11,X0_M11,X2_M11,X1_M11
2021-11-12 16:00:00,,0832.8,5.00,0.00,22.2,21.6,00.0,31.3,24.0,13.4,0000.0,0009.14,0003.38,0002.50
2021-11-12 16:01:00,,0832.7,5.00,0.00,22.2,21.6,00.0,31.3,24.0,13.4,0000.0,0008.60,0003.44,0002.53
2021-11-12 16:02:00,,0832.7,5.01,0.00,22.3,21.6,00.0,31.3,24.0,13.4,0000.0,0008.62,0003.46,0002.53
2021-11-12 16:03:00,,0832.7,4.99,0.00,22.3,21.6,00.0,31.3,24.0,13.3,0000.0,0008.10,0003.50,0002.55
2021-11-12 16:04:00,,0832.7,4.99,0.00,22.3,21.6,00.0,31.3,24.0,13.3,0000.0,0007.83,0003.50,0002.59
2021-11-12 16:05:00,,0832.8,5.00,0.00,22.3,21.7,00.0,31.3,24.0,13.3,0000.0,0008.31,0003.51,0002.62
2021-11-12 16:06:00,,0832.8,5.00,0.00,22.3,21.7,00.0,31.3,24.0,13.3,0000.0,0008.91,0003.51,0002.61
2021-11-12 16:07:00,,0832.7,4.99,0.00,22.3,21.6,00.0,31.3,24.1,13.3,0000.0,0008.96,0003.53,0002.61
2021-11-12 16:08:00,,0832.7,5.01,0.00,22.3,21.6,00.0,31.3,24.0,13.3,0000.0,0008.85,0003.51,0002.63
2021-11-12 16:09:00,,0832.8,5.01,0.00,22.3,21.7,00.0,31.3,24.1,13.3,0000.0,0008.81,0003.49,0002.63
2021-11-12 16:10:00,,0832.8,5.00,0.00,22.3,21.7,00.0,31.3,24.1,13.3,0000.0,0008.86,0003.48,0002.65
2021-11-12 16:11:00,,0832.8,5.00,0.00,22.3,21.7,00.0,31.3,24.1,13.2,0000.0,0008.91,0003.45,0002.64
2021-11-12 16:12:00,,0832.8,5.01,0.00,22.3,21.7,00.0,31.3,24.1,13.2,0000.0,0008.83,0003.40,0002.63
2021-11-12 16:13:00,,0832.8,5.00,0.00,22.3,21.7,00.0,31.3,24.1,13.2,0000.0,0008.87,0003.42,0002.64
2021-11-12 16:14:00,,0832.8,5.00,0.00,22.3,21.7,00.0,31.3,24.1,13.2,0000.0,0008.48,0003.40,0002.61
2021-11-12 16:15:00,,0832.7,4.99,0.00,22.3,21.7,00.0,31.3,24.1,13.2,0000.0,0008.48,0003.43,0002.59
2021-11-12 16:16:00,,0832.8,5.01,0.00,22.3,21.7,00.0,31.3,24.1,13.2,0000.0,0008.06,0003.47,0002.59
2021-11-12 16:17:00,,0832.8,4.99,0.00,22.3,21.7,00.0,31.3,24.1,13.2,0000.0,0007.28,0003.44,0002.59
2021-11-12 16:18:00,,0832.7,5.01,0.00,22.3,21.8,00.0,31.3,24.1,13.2,0000.0,0007.12,0003.41,0002.61
2021-11-12 16:19:00,,0832.7,4.99,0.00,22.3,21.8,00.0,31.3,24.1,13.2,0000.0,0008.05,0003.44,0002.61
2021-11-12 16:20:00,,0832.7,4.99,0.00,22.4,21.8,00.0,31.3,24.1,13.2,0000.0,0008.74,0003.45,0002.60
2021-11-12 16:21:00,,0832.8,5.01,0.00,22.4,21.8,00.0,31.3,24.2,13.2,0000.0,0008.99,0003.48,0002.60
2021-11-12 16:22:00,,0832.8,5.00,0.00,22.4,21.8,00.0,31.3,24.2,13.2,0000.0,0009.01,0003.49,0002.61
2021-11-12 16:23:00,,0832.8,5.01,0.00,22.4,21.8,00.0,31.3,24.2,13.2,0000.0,0009.49,0003.49,0002.63
2021-11-12 16:24:00,,0832.7,5.00,0.00,22.4,21.8,00.0,31.4,24.2,13.1,0000.0,0009.45,0003.48,0002.63
2021-11-12 16:25:00,,0832.8,5.00,0.00,22.4,21.9,00.0,31.4,24.2,13.2,0000.0,0009.58,0003.46,0002.63
2021-11-12 16:26:00,,0832.7,5.00,0.00,22.4,21.9,00.0,31.4,24.3,13.2,0000.0,0010.41,0003.45,0002.63
2021-11-12 16:27:00,,0832.7,5.01,0.00,22.5,21.9,00.0,31.4,24.3,13.2,0000.0,0011.39,0003.42,0002.62
2021-11-12 16:28:00,,0832.7,5.00,0.00,22.5,21.9,00.0,31.4,24.3,13.3,0000.0,0012.13,0003.43,0002.62
2021-11-12 16:29:00,,0832.7,5.00,0.00,22.5,21.9,00.0,31.4,24.3,13.3,0000.0,0012.67,0003.46,0002.64
2021-11-12 16:30:00,,0832.7,5.00,0.00,22.5,21.9,00.0,31.4,24.3,13.2,0000.0,0011.99,0003.45,0002.62
2021-11-12 16:31:00,,0832.8,4.99,0.00,22.5,21.9,00.0,31.4,24.3,13.2,0000.0,0011.42,0003.46,0002.65
2021-11-12 16:32:00,,0832.7,5.01,0.00,22.4,21.8,00.0,31.4,24.2,13.2,0000.0,0011.08,0003.47,0002.65
2021-11-12 16:33:00,,0832.8,4.98,0.00,22.4,21.8,00.0,31.4,24.2,13.2,0000.0,0011.72,0003.48,0002.65
2021-11-12 16:34:00,,0832.8,5.01,0.00,22.4,21.8,00.0,31.4,24.2,13.2,0000.0,0011.85,0003.50,0002.66
2021-11-12 16:35:00,,0832.7,5.00,0.00,22.4,21.8,00.0,31.4,24.2,13.3,0000.0,0012.08,0003.50,0002.68
2021-11-12 16:36:00,,0832.7,4.99,0.00,22.4,21.8,00.0,31.4,24.2,13.3,0000.0,0012.00,0003.50,0002.71
2021-11-12 16:37:00,,0832.7,5.00,0.00,22.5,21.8,00.0,31.4,24.3,13.3,0000.0,0011.40,0003.51,0002.73
2021-11-12 16:38:00,,0832.7,5.00,0.00,22.5,21.9,00.0,31.4,24.3,13.3,0000.0,0010.51,0003.55,0002.76
2021-11-12 16:39:00,,0832.7,4.99,0.00,22.5,21.9,00.0,31.5,24.4,13.3,0000.0,0009.90,0003.58,0002.80
2021-11-12 16:40:00,,0832.7,5.01,0.00,22.5,21.9,00.0,31.5,24.4,13.2,0000.0,0009.58,0003.58,0002.80
2021-11-12 16:41:00,,0832.7,4.99,0.00,22.5,21.9,00.0,31.5,24.4,13.2,0000.0,0009.74,0003.58,0002.81
2021-11-12 16:42:00,,0832.8,5.00,0.00,22.6,21.9,00.0,31.5,24.4,13.2,0000.0,0010.11,0003.56,0002.81
2021-11-12 16:43:00,,0832.7,5.00,0.00,22.6,22.0,00.0,31.5,24.4,13.2,0000.0,0010.26,0003.60,0002.82
2021-11-12 16:44:00,,0832.8,5.00,0.00,22.6,22.0,00.0,31.5,24.4,13.2,0000.0,0010.19,0003.59,0002.82
2021-11-12 16:45:00,,0832.8,5.00,0.00,22.6,22.0,00.0,31.5,24.4,13.2,0000.0,0010.29,0003.57,0002.83
2021-11-12 16:46:00,,0832.8,5.01,0.00,22.6,22.0,00.0,31.5,24.4,13.3,0000.0,0010.18,0003.58,0002.83
2021-11-12 16:47:00,,0832.8,5.01,0.00,22.6,22.0,00.0,31.5,24.5,13.3,0000.0,0010.18,0003.61,0002.84
2021-11-12 16:48:00,,0832.7,4.99,0.00,22.6,22.0,00.0,31.5,24.4,13.2,0000.0,0010.50,0003.65,0002.83
2021-11-12 16:49:00,,0832.8,5.00,0.00,22.6,22.0,00.0,31.6,24.4,13.2,0000.0,0010.53,0003.67,0002.84
2021-11-12 16:50:00,,0832.8,5.00,0.00,22.6,22.0,00.0,31.6,24.4,13.2,0000.0,0010.77,0003.68,0002.83
2021-11-12 16:51:00,,0832.7,5.00,0.00,22.7,22.0,00.0,31.6,24.4,13.3,0000.0,0011.61,0003.69,0002.84
2021-11-12 16:52:00,,0832.8,5.01,0.00,22.7,22.0,00.0,31.6,24.5,13.3,0000.0,0011.78,0003.74,0002.88
2021-11-12 16:53:00,,0832.8,4.99,0.00,22.7,22.1,00.0,31.6,24.5,13.3,0000.0,0011.87,0003.79,0002.91
2021-11-12 16:54:00,,0832.8,5.00,0.00,22.7,22.1,00.0,31.6,24.5,13.2,0000.0,0012.14,0003.76,0002.92
2021-11-12 16:55:00,,0832.7,5.00,0.00,22.7,22.1,00.0,31.6,24.5,13.1,0000.0,0012.20,0003.76,0002.94
2021-11-12 16:56:00,,0832.8,5.00,0.00,22.7,22.1,00.0,31.6,24.6,13.2,0000.0,0011.22,0003.76,0002.95
2021-11-12 16:57:00,,0832.7,4.99,0.00,22.8,22.1,00.0,31.6,24.6,13.2,0000.0,0010.92,0003.75,0002.97
2021-11-12 16:58:00,,0832.7,5.01,0.00,22.8,22.2,00.0,31.7,24.6,13.2,0000.0,0011.07,0003.73,0002.97
2021-11-12 16:59:00,,0832.7,5.00,0.00,22.8,22.2,00.0,31.7,24.7,13.2,0000.0,0011.12,0003.73,0003.00
